Year,Month,Day,Hour,Minute,Value (Times are PST for temperature in C)
2009,04,29,00,00,9.60
2009,04,29,00,01,9.60
2009,04,29,00,02,9.60
2009,04,29,00,03,9.50
2009,04,29,00,04,9.40
2009,04,29,00,05,9.40
2009,04,29,00,06,9.30
2009,04,29,00,07,9.30
2009,04,29,00,08,9.20
2009,04,29,00,09,9.20
2009,04,29,00,10,9.20
2009,04,29,00,11,9.20
2009,04,29,00,12,9.20
2009,04,29,01,02,9.40
2009,04,29,01,03,9.40
2009,04,29,01,04,9.40
2009,04,29,01,05,9.40
2009,04,29,01,06,9.30
2009,04,29,01,07,9.30
2009,04,29,01,08,9.20
2009,04,29,01,09,9.20
2009,04,29,01,10,9.20
2009,04,29,01,11,9.20
2009,04,29,01,12,9.20
2009,04,29,01,13,9.10
2009,04,29,01,14,9.10
2009,04,29,01,15,9.00
2009,04,29,01,16,9.10
2009,04,29,01,17,9.20
2009,04,29,01,18,9.30
2009,04,29,01,19,9.30
2009,04,29,01,20,9.30
2009,04,29,01,21,9.40
2009,04,29,01,22,9.30
2009,04,29,01,23,9.30
2009,04,29,01,24,9.30
2009,04,29,01,25,9.30
2009,04,29,01,26,9.30
2009,04,29,01,27,9.20
2009,04,29,01,28,9.20
2009,04,29,01,29,9.10
2009,04,29,01,30,9.00
2009,04,29,01,31,9.00
2009,04,29,01,32,8.90
2009,04,29,01,33,8.80
2009,04,29,01,34,8.80
2009,04,29,01,35,8.80
2009,04,29,01,36,8.80
2009,04,29,01,37,8.70
2009,04,29,01,38,8.70
2009,04,29,01,39,8.60
2009,04,29,01,40,8.60
2009,04,29,01,41,8.50
2009,04,29,01,42,8.60
2009,04,29,01,43,8.60
2009,04,29,01,44,8.60
2009,04,29,01,45,8.50
2009,04,29,01,46,8.50
2009,04,29,01,47,8.50
2009,04,29,01,48,8.50
2009,04,29,01,49,8.50
2009,04,29,01,50,8.60
2009,04,29,01,51,8.60
2009,04,29,01,52,8.60
2009,04,29,01,53,8.70
2009,04,29,01,54,8.70
2009,04,29,01,55,8.70
2009,04,29,01,56,8.70
2009,04,29,01,57,8.70
2009,04,29,01,58,8.70
2009,04,29,01,59,8.70
2009,04,29,02,00,8.60
2009,04,29,02,01,8.50
2009,04,29,02,02,8.50
2009,04,29,02,03,8.40
2009,04,29,02,04,8.40
2009,04,29,02,05,8.30
2009,04,29,02,06,8.30
2009,04,29,02,07,8.40
2009,04,29,02,08,8.40
2009,04,29,02,09,8.40
2009,04,29,02,10,8.50
2009,04,29,02,11,8.50
2009,04,29,02,12,8.50
2009,04,29,02,13,8.40
2009,04,29,02,14,8.50
2009,04,29,02,15,8.60
2009,04,29,02,16,8.60
2009,04,29,02,17,8.50
2009,04,29,02,18,8.50
2009,04,29,02,19,8.40
2009,04,29,02,20,8.40
2009,04,29,02,21,8.40
2009,04,29,02,22,8.30
2009,04,29,02,23,8.30
2009,04,29,02,24,8.30
2009,04,29,02,25,8.30
2009,04,29,02,26,8.30
2009,04,29,02,27,8.30
2009,04,29,02,28,8.20
2009,04,29,02,29,8.20
2009,04,29,02,30,8.10
2009,04,29,02,31,8.10
2009,04,29,02,32,8.10
2009,04,29,02,33,8.10
2009,04,29,02,34,8.10
2009,04,29,02,35,8.00
2009,04,29,02,36,7.90
2009,04,29,02,37,7.80
2009,04,29,02,38,7.80
2009,04,29,02,39,7.70
2009,04,29,02,40,7.70
2009,04,29,02,41,7.60
2009,04,29,02,42,7.50
2009,04,29,02,43,7.50
2009,04,29,02,44,7.40
2009,04,29,02,45,7.40
2009,04,29,02,46,7.50
2009,04,29,02,47,7.50
2009,04,29,02,48,7.50
2009,04,29,02,49,7.50
2009,04,29,02,50,7.50
2009,04,29,02,51,7.40
2009,04,29,02,52,7.40
2009,04,29,02,53,7.40
2009,04,29,02,54,7.30
2009,04,29,02,55,7.30
2009,04,29,02,56,7.30
2009,04,29,02,57,7.40
2009,04,29,02,58,7.50
2009,04,29,02,59,7.50
2009,04,29,03,00,7.50
2009,04,29,03,01,7.40
2009,04,29,03,02,7.40
2009,04,29,03,03,7.40
2009,04,29,03,04,7.40
2009,04,29,03,05,7.40
2009,04,29,03,06,7.30
2009,04,29,03,07,7.20
2009,04,29,03,08,7.20
2009,04,29,03,09,7.20
2009,04,29,03,10,7.20
2009,04,29,03,11,7.20
2009,04,29,03,12,7.20
2009,04,29,03,13,7.20
2009,04,29,03,14,7.20
2009,04,29,03,15,7.20
2009,04,29,03,16,7.30
2009,04,29,03,17,7.40
2009,04,29,03,18,7.50
2009,04,29,03,19,7.50
2009,04,29,03,20,7.50
2009,04,29,03,21,7.40
2009,04,29,03,22,7.40
2009,04,29,03,23,7.40
2009,04,29,03,24,7.30
2009,04,29,03,25,7.30
2009,04,29,03,26,7.20
2009,04,29,03,27,7.20
2009,04,29,03,28,7.20
2009,04,29,03,29,7.10
2009,04,29,03,30,7.00
2009,04,29,03,31,7.00
2009,04,29,03,32,7.00
2009,04,29,03,33,7.00
2009,04,29,03,34,7.00
2009,04,29,03,35,7.00
2009,04,29,03,36,7.10
2009,04,29,03,37,7.10
2009,04,29,03,38,7.10
2009,04,29,03,39,7.10
2009,04,29,03,40,7.20
2009,04,29,03,41,7.20
2009,04,29,03,42,7.20
2009,04,29,03,43,7.20
2009,04,29,03,44,7.20
2009,04,29,03,45,7.20
2009,04,29,03,46,7.20
2009,04,29,03,47,7.20
2009,04,29,03,48,7.20
2009,04,29,03,49,7.10
2009,04,29,03,50,7.00
2009,04,29,03,51,6.90
2009,04,29,03,52,6.90
2009,04,29,03,53,6.80
2009,04,29,03,54,6.70
2009,04,29,03,55,6.60
2009,04,29,03,56,6.50
2009,04,29,03,57,6.40
2009,04,29,03,58,6.30
2009,04,29,03,59,6.20
2009,04,29,04,00,6.10
2009,04,29,04,01,6.10
2009,04,29,04,02,6.10
2009,04,29,04,03,6.10
2009,04,29,04,04,6.10
2009,04,29,04,05,6.20
2009,04,29,04,06,6.30
2009,04,29,04,07,6.30
2009,04,29,04,08,6.40
2009,04,29,04,09,6.40
2009,04,29,04,10,6.40
2009,04,29,04,11,6.40
2009,04,29,04,12,6.40
2009,04,29,04,13,6.30
2009,04,29,04,14,6.30
2009,04,29,04,15,6.30
2009,04,29,04,16,6.20
2009,04,29,04,17,6.10
2009,04,29,04,18,6.00
2009,04,29,04,19,6.00
2009,04,29,04,20,5.90
2009,04,29,04,21,5.80
2009,04,29,04,22,5.80
2009,04,29,04,23,5.70
2009,04,29,04,24,5.70
2009,04,29,04,25,5.70
2009,04,29,04,26,5.60
2009,04,29,04,27,5.60
2009,04,29,04,28,5.60
2009,04,29,04,29,5.70
2009,04,29,04,30,5.80
2009,04,29,04,31,5.90
2009,04,29,04,32,6.00
2009,04,29,04,33,6.10
2009,04,29,04,34,6.30
2009,04,29,04,35,6.50
2009,04,29,04,36,6.60
2009,04,29,04,37,6.70
2009,04,29,04,38,6.80
2009,04,29,04,39,6.90
2009,04,29,04,40,6.90
2009,04,29,04,41,6.90
2009,04,29,04,42,7.00
2009,04,29,04,43,7.00
2009,04,29,04,44,6.90
2009,04,29,04,45,6.80
2009,04,29,04,46,6.80
2009,04,29,04,47,6.70
2009,04,29,04,48,6.60
2009,04,29,04,49,6.60
2009,04,29,04,50,6.50
2009,04,29,04,51,6.40
2009,04,29,04,52,6.40
2009,04,29,04,53,6.30
2009,04,29,04,54,6.20
2009,04,29,04,55,6.10
2009,04,29,04,56,6.00
2009,04,29,04,57,5.90
2009,04,29,04,58,5.90
2009,04,29,04,59,5.80
2009,04,29,05,00,5.80
2009,04,29,05,01,5.80
2009,04,29,05,02,5.70
2009,04,29,05,03,5.70
2009,04,29,05,04,5.70
2009,04,29,05,05,5.60
2009,04,29,05,06,5.60
2009,04,29,05,07,5.60
2009,04,29,05,08,5.50
2009,04,29,05,09,5.50
2009,04,29,05,10,5.50
2009,04,29,05,11,5.50
2009,04,29,05,12,5.50
2009,04,29,05,13,5.50
2009,04,29,05,14,5.50
2009,04,29,05,15,5.50
2009,04,29,05,16,5.50
2009,04,29,05,17,5.50
2009,04,29,05,18,5.50
2009,04,29,05,19,5.50
2009,04,29,05,20,5.50
2009,04,29,05,21,5.50
2009,04,29,05,22,5.50
2009,04,29,05,23,5.50
2009,04,29,05,24,5.50
2009,04,29,05,25,5.50
2009,04,29,05,26,5.50
2009,04,29,05,27,5.40
2009,04,29,05,28,5.40
2009,04,29,05,29,5.40
2009,04,29,05,30,5.40
2009,04,29,05,31,5.40
2009,04,29,05,32,5.40
2009,04,29,05,33,5.40
2009,04,29,05,34,5.40
2009,04,29,05,35,5.40
2009,04,29,05,36,5.40
2009,04,29,05,37,5.40
2009,04,29,05,38,5.40
2009,04,29,05,39,5.40
2009,04,29,05,40,5.40
2009,04,29,05,41,5.40
2009,04,29,05,42,5.30
2009,04,29,05,43,5.30
2009,04,29,05,44,5.30
2009,04,29,05,45,5.30
2009,04,29,05,46,5.30
2009,04,29,05,47,5.30
2009,04,29,05,48,5.30
2009,04,29,05,49,5.30
2009,04,29,05,50,5.30
2009,04,29,05,51,5.30
2009,04,29,05,52,5.20
2009,04,29,05,53,5.20
2009,04,29,05,54,5.20
2009,04,29,05,55,5.20
2009,04,29,05,56,5.10
2009,04,29,05,57,5.10
2009,04,29,05,58,5.10
2009,04,29,05,59,5.10
2009,04,29,06,00,5.00
2009,04,29,06,01,5.00
2009,04,29,06,02,5.00
2009,04,29,06,03,4.90
2009,04,29,06,04,4.90
2009,04,29,06,05,4.90
2009,04,29,06,06,4.90
2009,04,29,06,07,4.90
2009,04,29,06,08,4.80
2009,04,29,06,09,4.80
2009,04,29,06,10,4.80
2009,04,29,06,11,4.80
2009,04,29,06,12,4.80
2009,04,29,06,13,4.80
2009,04,29,06,14,4.80
2009,04,29,06,15,4.90
2009,04,29,06,16,4.80
2009,04,29,06,17,4.80
2009,04,29,06,18,4.80
2009,04,29,06,19,4.80
2009,04,29,06,20,4.80
2009,04,29,06,21,4.80
2009,04,29,06,22,4.80
2009,04,29,06,23,4.80
2009,04,29,06,24,4.80
2009,04,29,06,25,4.80
2009,04,29,06,26,4.90
2009,04,29,06,27,4.80
2009,04,29,06,28,4.80
2009,04,29,06,29,4.80
2009,04,29,06,30,4.80
2009,04,29,06,31,4.80
2009,04,29,06,32,4.80
2009,04,29,06,33,4.80
2009,04,29,06,34,4.80
2009,04,29,06,35,4.80
2009,04,29,06,36,4.80
2009,04,29,06,37,4.80
2009,04,29,06,38,4.80
2009,04,29,06,39,4.80
2009,04,29,06,40,4.80
2009,04,29,06,41,4.80
2009,04,29,06,42,4.80
2009,04,29,06,43,4.90
2009,04,29,06,44,4.90
2009,04,29,06,45,5.00
2009,04,29,06,46,5.00
2009,04,29,06,47,5.10
2009,04,29,06,48,5.10
2009,04,29,06,49,5.10
2009,04,29,06,50,5.20
2009,04,29,06,51,5.20
2009,04,29,06,52,5.30
2009,04,29,06,53,5.30
2009,04,29,06,54,5.30
2009,04,29,06,55,5.30
2009,04,29,06,56,5.30
2009,04,29,06,57,5.40
2009,04,29,06,58,5.40
2009,04,29,06,59,5.40
2009,04,29,07,00,5.50
2009,04,29,07,01,5.50
2009,04,29,07,02,5.60
2009,04,29,07,03,5.60
2009,04,29,07,04,5.60
2009,04,29,07,05,5.70
2009,04,29,07,06,5.70
2009,04,29,07,07,5.80
2009,04,29,07,08,5.80
2009,04,29,07,09,5.80
2009,04,29,07,10,5.90
2009,04,29,07,11,6.00
2009,04,29,07,12,6.00
2009,04,29,07,13,6.00
2009,04,29,07,14,6.10
2009,04,29,07,15,6.10
2009,04,29,07,16,6.20
2009,04,29,07,17,6.20
2009,04,29,07,18,6.30
2009,04,29,07,19,6.30
2009,04,29,07,20,6.40
2009,04,29,07,21,6.50
2009,04,29,07,22,6.50
2009,04,29,07,23,6.60
2009,04,29,07,24,6.70
2009,04,29,07,25,6.70
2009,04,29,07,26,6.80
2009,04,29,07,27,6.80
2009,04,29,07,28,6.90
2009,04,29,07,29,7.00
2009,04,29,07,30,7.10
2009,04,29,07,31,7.20
2009,04,29,07,32,7.20
2009,04,29,07,33,7.20
2009,04,29,07,34,7.30
2009,04,29,07,35,7.40
2009,04,29,07,36,7.40
2009,04,29,07,37,7.50
2009,04,29,07,38,7.60
2009,04,29,07,39,7.60
2009,04,29,07,40,7.70
2009,04,29,07,41,7.70
2009,04,29,07,42,7.80
2009,04,29,07,43,7.80
2009,04,29,07,44,7.90
2009,04,29,07,45,8.00
2009,04,29,07,46,8.00
2009,04,29,07,47,8.10
2009,04,29,07,48,8.20
2009,04,29,07,49,8.30
2009,04,29,07,50,8.40
2009,04,29,07,51,8.50
2009,04,29,07,52,8.60
2009,04,29,07,53,8.70
2009,04,29,07,54,8.80
2009,04,29,07,55,8.90
2009,04,29,07,56,9.00
2009,04,29,07,57,9.10
2009,04,29,07,58,9.20
2009,04,29,07,59,9.30
2009,04,29,08,00,9.30
2009,04,29,08,01,9.40
2009,04,29,08,02,9.40
2009,04,29,08,03,9.50
2009,04,29,08,04,9.50
2009,04,29,08,05,9.60
2009,04,29,08,06,9.70
2009,04,29,08,07,9.80
2009,04,29,08,08,9.90
2009,04,29,08,09,10.00
2009,04,29,08,10,10.10
2009,04,29,08,11,10.20
2009,04,29,08,12,10.30
2009,04,29,08,13,10.30
2009,04,29,08,14,10.40
2009,04,29,08,15,10.40
2009,04,29,08,16,10.40
2009,04,29,08,17,10.40
2009,04,29,08,18,10.40
2009,04,29,08,19,10.40
2009,04,29,08,20,10.50
2009,04,29,08,21,10.50
2009,04,29,08,22,10.60
2009,04,29,08,23,10.60
2009,04,29,08,24,10.60
2009,04,29,08,25,10.70
2009,04,29,08,26,10.70
2009,04,29,08,27,10.80
2009,04,29,08,28,10.80
2009,04,29,08,29,10.80
2009,04,29,08,30,10.90
2009,04,29,08,31,10.90
2009,04,29,08,32,11.00
2009,04,29,08,33,11.00
2009,04,29,08,34,11.00
2009,04,29,08,35,11.10
2009,04,29,08,36,11.10
2009,04,29,08,37,11.20
2009,04,29,08,38,11.20
2009,04,29,08,39,11.30
2009,04,29,08,40,11.30
2009,04,29,08,41,11.30
2009,04,29,08,42,11.30
2009,04,29,08,43,11.30
2009,04,29,08,44,11.30
2009,04,29,08,45,11.30
2009,04,29,08,46,11.40
2009,04,29,08,47,11.40
2009,04,29,08,48,11.40
2009,04,29,08,49,11.40
2009,04,29,08,50,11.40
2009,04,29,08,51,11.40
2009,04,29,08,52,11.40
2009,04,29,08,53,11.50
2009,04,29,08,54,11.50
2009,04,29,08,55,11.50
2009,04,29,08,56,11.50
2009,04,29,08,57,11.50
2009,04,29,08,58,11.50
2009,04,29,08,59,11.50
2009,04,29,09,00,11.60
2009,04,29,09,01,11.60
2009,04,29,09,02,11.60
2009,04,29,09,03,11.60
2009,04,29,09,04,11.70
2009,04,29,09,05,11.80
2009,04,29,09,06,11.80
2009,04,29,09,07,11.80
2009,04,29,09,08,11.90
2009,04,29,09,09,11.90
2009,04,29,09,10,12.00
2009,04,29,09,11,12.00
2009,04,29,09,12,12.00
2009,04,29,09,13,12.10
2009,04,29,09,14,12.10
2009,04,29,09,15,12.20
2009,04,29,09,16,12.20
2009,04,29,09,17,12.20
2009,04,29,09,18,12.30
2009,04,29,09,19,12.30
2009,04,29,09,20,12.30
2009,04,29,09,21,12.30
2009,04,29,09,22,12.30
2009,04,29,09,23,12.20
2009,04,29,09,24,12.20
2009,04,29,09,25,12.20
2009,04,29,09,26,12.20
2009,04,29,09,27,12.20
2009,04,29,09,28,12.20
2009,04,29,09,29,12.20
2009,04,29,09,30,12.20
2009,04,29,09,31,12.30
2009,04,29,09,32,12.30
2009,04,29,09,33,12.30
2009,04,29,09,34,12.20
2009,04,29,09,35,12.20
2009,04,29,09,36,12.20
2009,04,29,09,37,12.30
2009,04,29,09,38,12.30
2009,04,29,09,39,12.40
2009,04,29,09,40,12.40
2009,04,29,09,41,12.30
2009,04,29,09,42,12.30
2009,04,29,09,43,12.30
2009,04,29,09,44,12.20
2009,04,29,09,45,12.20
2009,04,29,09,46,12.20
2009,04,29,09,47,12.20
2009,04,29,09,48,12.20
2009,04,29,09,49,12.20
2009,04,29,09,50,12.10
2009,04,29,09,51,12.00
2009,04,29,09,52,11.90
2009,04,29,09,53,11.90
2009,04,29,09,54,11.80
2009,04,29,09,55,11.80
2009,04,29,09,56,11.80
2009,04,29,09,57,11.70
2009,04,29,09,58,11.70
2009,04,29,09,59,11.70
2009,04,29,10,00,11.70
2009,04,29,10,01,11.70
2009,04,29,10,02,11.70
2009,04,29,10,03,11.80
2009,04,29,10,04,11.80
2009,04,29,10,05,11.80
2009,04,29,10,06,11.80
2009,04,29,10,07,11.80
2009,04,29,10,08,11.80
2009,04,29,10,09,11.90
2009,04,29,10,10,11.90
2009,04,29,10,11,11.90
2009,04,29,10,12,11.90
2009,04,29,10,13,11.90
2009,04,29,10,14,11.90
2009,04,29,10,15,11.90
2009,04,29,10,16,11.90
2009,04,29,10,17,11.90
2009,04,29,10,18,11.90
2009,04,29,10,19,11.90
2009,04,29,10,20,11.90
2009,04,29,10,21,11.90
2009,04,29,10,22,11.90
2009,04,29,10,23,11.90
2009,04,29,10,24,11.90
2009,04,29,10,25,12.00
2009,04,29,10,26,12.00
2009,04,29,10,27,12.00
2009,04,29,10,28,12.10
2009,04,29,10,29,12.00
2009,04,29,10,30,12.00
2009,04,29,10,31,11.90
2009,04,29,10,32,11.90
2009,04,29,10,33,11.80
2009,04,29,10,34,11.80
2009,04,29,10,35,11.80
2009,04,29,10,36,11.80
2009,04,29,10,37,11.80
2009,04,29,10,38,11.90
2009,04,29,10,39,12.00
2009,04,29,10,40,12.10
2009,04,29,10,41,12.20
2009,04,29,10,42,12.20
2009,04,29,10,43,12.30
2009,04,29,10,44,12.40
2009,04,29,10,45,12.40
2009,04,29,10,46,12.40
2009,04,29,10,47,12.40
2009,04,29,10,48,12.40
2009,04,29,10,49,12.40
2009,04,29,10,50,12.40
2009,04,29,10,51,12.40
2009,04,29,10,52,12.50
2009,04,29,10,53,12.50
2009,04,29,10,54,12.60
2009,04,29,10,55,12.60
2009,04,29,10,56,12.70
2009,04,29,10,57,12.80
2009,04,29,10,58,12.80
2009,04,29,10,59,12.90
2009,04,29,11,00,12.90
2009,04,29,11,01,12.90
2009,04,29,11,02,12.90
2009,04,29,11,03,12.90
2009,04,29,11,04,12.90
2009,04,29,11,05,12.90
2009,04,29,11,06,13.00
2009,04,29,11,07,13.00
2009,04,29,11,08,13.10
2009,04,29,11,09,13.20
2009,04,29,11,10,13.40
2009,04,29,11,11,13.60
2009,04,29,11,12,13.70
2009,04,29,11,13,13.70
2009,04,29,11,14,13.70
2009,04,29,11,15,13.80
2009,04,29,11,16,13.80
2009,04,29,11,17,13.80
2009,04,29,11,18,13.80
2009,04,29,11,19,13.80
2009,04,29,11,20,13.80
2009,04,29,11,21,13.80
2009,04,29,11,22,13.80
2009,04,29,11,23,13.90
2009,04,29,11,24,13.90
2009,04,29,11,25,13.90
2009,04,29,11,26,13.90
2009,04,29,11,27,13.90
2009,04,29,11,28,13.80
2009,04,29,11,29,13.90
2009,04,29,11,30,13.80
2009,04,29,11,31,13.80
2009,04,29,11,32,13.80
2009,04,29,11,33,13.60
2009,04,29,11,34,13.50
2009,04,29,11,35,13.40
2009,04,29,11,36,13.40
2009,04,29,11,37,13.50
2009,04,29,11,38,13.50
2009,04,29,11,39,13.40
2009,04,29,11,40,13.30
2009,04,29,11,41,13.00
2009,04,29,11,42,12.90
2009,04,29,11,43,12.90
2009,04,29,11,44,12.90
2009,04,29,11,45,13.00
2009,04,29,11,46,13.00
2009,04,29,11,47,13.00
2009,04,29,11,48,13.00
2009,04,29,11,49,13.00
2009,04,29,11,50,13.00
2009,04,29,11,51,12.90
2009,04,29,11,52,12.90
2009,04,29,11,53,12.90
2009,04,29,11,54,12.80
2009,04,29,11,55,12.70
2009,04,29,11,56,12.60
2009,04,29,11,57,12.50
2009,04,29,11,58,12.60
2009,04,29,11,59,12.70
2009,04,29,12,00,12.70
2009,04,29,12,01,12.60
2009,04,29,12,02,12.50
2009,04,29,12,03,12.40
2009,04,29,12,04,12.40
2009,04,29,12,05,12.40
2009,04,29,12,06,12.50
2009,04,29,12,07,12.60
2009,04,29,12,08,12.70
2009,04,29,12,09,12.80
2009,04,29,12,10,13.00
2009,04,29,12,11,13.10
2009,04,29,12,12,13.10
2009,04,29,12,13,13.10
2009,04,29,12,14,13.00
2009,04,29,12,15,12.90
2009,04,29,12,16,12.80
2009,04,29,12,17,12.80
2009,04,29,12,18,12.80
2009,04,29,12,19,12.80
2009,04,29,12,20,12.70
2009,04,29,12,21,12.70
2009,04,29,12,22,12.70
2009,04,29,12,23,12.70
2009,04,29,12,24,12.80
2009,04,29,12,25,12.90
2009,04,29,12,26,13.10
2009,04,29,12,27,13.20
2009,04,29,12,28,13.40
2009,04,29,12,29,13.60
2009,04,29,12,30,13.80
2009,04,29,12,31,13.80
2009,04,29,12,32,13.60
2009,04,29,12,33,13.50
2009,04,29,12,34,13.50
2009,04,29,12,35,13.60
2009,04,29,12,36,13.60
2009,04,29,12,37,13.50
2009,04,29,12,38,13.50
2009,04,29,12,39,13.60
2009,04,29,12,40,13.70
2009,04,29,12,41,13.90
2009,04,29,12,42,14.00
2009,04,29,12,43,14.10
2009,04,29,12,44,14.10
2009,04,29,12,45,14.10
2009,04,29,12,46,14.10
2009,04,29,12,47,14.10
2009,04,29,12,48,14.10
2009,04,29,12,49,14.10
2009,04,29,12,50,14.10
2009,04,29,12,51,14.20
2009,04,29,12,52,14.30
2009,04,29,12,53,14.30
2009,04,29,12,54,14.30
2009,04,29,12,55,14.30
2009,04,29,12,56,14.20
2009,04,29,12,57,14.20
2009,04,29,12,58,14.20
2009,04,29,12,59,14.20
2009,04,29,13,00,14.20
2009,04,29,13,01,14.20
2009,04,29,13,02,14.20
2009,04,29,13,03,14.10
2009,04,29,13,04,14.10
2009,04,29,13,05,14.10
2009,04,29,13,06,14.20
2009,04,29,13,07,14.20
2009,04,29,13,08,14.20
2009,04,29,13,09,14.30
2009,04,29,13,10,14.30
2009,04,29,13,11,14.40
2009,04,29,13,12,14.50
2009,04,29,13,13,14.50
2009,04,29,13,14,14.60
2009,04,29,13,15,14.70
2009,04,29,13,16,14.70
2009,04,29,13,17,14.70
2009,04,29,13,18,14.60
2009,04,29,13,19,14.50
2009,04,29,13,20,14.40
2009,04,29,13,21,14.40
2009,04,29,13,22,14.50
2009,04,29,13,23,14.60
2009,04,29,13,24,14.80
2009,04,29,13,25,15.00
2009,04,29,13,26,15.10
2009,04,29,13,27,15.30
2009,04,29,13,28,15.40
2009,04,29,13,29,15.20
2009,04,29,13,30,15.00
2009,04,29,13,31,14.90
2009,04,29,13,32,14.80
2009,04,29,13,33,14.70
2009,04,29,13,34,14.80
2009,04,29,13,35,14.80
2009,04,29,13,36,14.70
2009,04,29,13,37,14.50
2009,04,29,13,38,14.20
2009,04,29,13,39,14.00
2009,04,29,13,40,13.80
2009,04,29,13,41,13.70
2009,04,29,13,42,13.60
2009,04,29,13,43,13.50
2009,04,29,13,44,13.50
2009,04,29,13,45,13.60
2009,04,29,13,46,13.70
2009,04,29,13,47,13.70
2009,04,29,13,48,13.80
2009,04,29,13,49,13.80
2009,04,29,13,50,13.90
2009,04,29,13,51,14.00
2009,04,29,13,52,14.10
2009,04,29,13,53,14.10
2009,04,29,13,54,14.20
2009,04,29,13,55,14.30
2009,04,29,13,56,14.30
2009,04,29,13,57,14.30
2009,04,29,13,58,14.30
2009,04,29,13,59,14.30
2009,04,29,14,00,14.20
2009,04,29,14,01,14.20
2009,04,29,14,02,14.20
2009,04,29,14,03,14.20
2009,04,29,14,04,14.40
2009,04,29,14,05,14.50
2009,04,29,14,06,14.50
2009,04,29,14,07,14.50
2009,04,29,14,08,14.60
2009,04,29,14,09,14.80
2009,04,29,14,10,14.80
2009,04,29,14,11,14.90
2009,04,29,14,12,15.00
2009,04,29,14,13,15.00
2009,04,29,14,14,15.10
2009,04,29,14,15,15.20
2009,04,29,14,16,15.20
2009,04,29,14,17,15.20
2009,04,29,14,18,15.20
2009,04,29,14,19,15.20
2009,04,29,14,20,15.20
2009,04,29,14,21,15.30
2009,04,29,14,22,15.30
2009,04,29,14,23,15.50
2009,04,29,14,24,15.60
2009,04,29,14,25,15.70
2009,04,29,14,26,15.80
2009,04,29,14,27,15.80
2009,04,29,14,28,15.80
2009,04,29,14,29,15.70
2009,04,29,14,30,15.70
2009,04,29,14,31,15.70
2009,04,29,14,32,15.70
2009,04,29,14,33,15.80
2009,04,29,14,34,15.70
2009,04,29,14,35,15.60
2009,04,29,14,36,15.60
2009,04,29,14,37,15.40
2009,04,29,14,38,15.30
2009,04,29,14,39,15.30
2009,04,29,14,40,15.30
2009,04,29,14,41,15.40
2009,04,29,14,42,15.50
2009,04,29,14,43,15.60
2009,04,29,14,44,15.70
2009,04,29,14,45,15.70
2009,04,29,14,46,15.60
2009,04,29,14,47,15.60
2009,04,29,14,48,15.60
2009,04,29,14,49,15.50
2009,04,29,14,50,15.50
2009,04,29,14,51,15.40
2009,04,29,14,52,15.30
2009,04,29,14,53,15.30
2009,04,29,14,54,15.20
2009,04,29,14,55,15.10
2009,04,29,14,56,15.00
2009,04,29,14,57,15.00
2009,04,29,14,58,15.00
2009,04,29,14,59,15.00
2009,04,29,15,00,15.00
2009,04,29,15,01,15.00
2009,04,29,15,02,15.00
2009,04,29,15,03,14.80
2009,04,29,15,04,14.70
2009,04,29,15,05,14.60
2009,04,29,15,06,14.60
2009,04,29,15,07,14.60
2009,04,29,15,08,14.70
2009,04,29,15,09,14.70
2009,04,29,15,10,14.80
2009,04,29,15,11,14.90
2009,04,29,15,12,14.90
2009,04,29,15,13,14.90
2009,04,29,15,14,14.80
2009,04,29,15,15,14.80
2009,04,29,15,16,14.80
2009,04,29,15,17,14.80
2009,04,29,15,18,14.60
2009,04,29,15,19,14.50
2009,04,29,15,20,14.40
2009,04,29,15,21,14.30
2009,04,29,15,22,14.20
2009,04,29,15,23,14.20
2009,04,29,15,24,14.20
2009,04,29,15,25,14.20
2009,04,29,15,26,14.10
2009,04,29,15,27,14.10
2009,04,29,15,28,14.20
2009,04,29,15,29,14.20
2009,04,29,15,30,14.20
2009,04,29,15,31,14.20
2009,04,29,15,32,14.30
2009,04,29,15,33,14.30
2009,04,29,15,34,14.40
2009,04,29,15,35,14.50
2009,04,29,15,36,14.50
2009,04,29,15,37,14.60
2009,04,29,15,38,14.70
2009,04,29,15,39,14.70
2009,04,29,15,40,14.70
2009,04,29,15,41,14.70
2009,04,29,15,42,14.60
2009,04,29,15,43,14.60
2009,04,29,15,44,14.50
2009,04,29,15,45,14.40
2009,04,29,15,46,14.30
2009,04,29,15,47,14.30
2009,04,29,15,48,14.20
2009,04,29,15,49,14.20
2009,04,29,15,50,14.20
2009,04,29,15,51,14.00
2009,04,29,15,52,13.80
2009,04,29,15,53,13.70
2009,04,29,15,54,13.50
2009,04,29,15,55,13.50
2009,04,29,15,56,13.40
2009,04,29,15,57,13.40
2009,04,29,15,58,13.50
2009,04,29,15,59,13.60
2009,04,29,16,00,13.70
2009,04,29,16,01,13.70
2009,04,29,16,02,13.80
2009,04,29,16,03,13.80
2009,04,29,16,04,13.80
2009,04,29,16,05,13.90
2009,04,29,16,06,13.90
2009,04,29,16,07,14.00
2009,04,29,16,08,14.00
2009,04,29,16,09,14.00
2009,04,29,16,10,14.00
2009,04,29,16,11,14.00
2009,04,29,16,12,14.00
2009,04,29,16,13,13.90
2009,04,29,16,14,13.90
2009,04,29,16,15,13.90
2009,04,29,16,16,14.00
2009,04,29,16,17,14.00
2009,04,29,16,18,14.10
2009,04,29,16,19,14.10
2009,04,29,16,20,14.20
2009,04,29,16,21,14.20
2009,04,29,16,22,14.10
2009,04,29,16,23,14.10
2009,04,29,16,24,14.10
2009,04,29,16,25,14.00
2009,04,29,16,26,14.00
2009,04,29,16,27,14.00
2009,04,29,16,28,14.00
2009,04,29,16,29,14.00
2009,04,29,16,30,14.10
2009,04,29,16,31,14.20
2009,04,29,16,32,14.20
2009,04,29,16,33,14.30
2009,04,29,16,34,14.40
2009,04,29,16,35,14.50
2009,04,29,16,36,14.60
2009,04,29,16,37,14.60
2009,04,29,16,38,14.70
2009,04,29,16,39,14.70
2009,04,29,16,40,14.70
2009,04,29,16,41,14.70
2009,04,29,16,42,14.60
2009,04,29,16,43,14.60
2009,04,29,16,44,14.60
2009,04,29,16,45,14.60
2009,04,29,16,46,14.60
2009,04,29,16,47,14.60
2009,04,29,16,48,14.60
2009,04,29,16,49,14.60
2009,04,29,16,50,14.60
2009,04,29,16,51,14.70
2009,04,29,16,52,14.70
2009,04,29,16,53,14.60
2009,04,29,16,54,14.60
2009,04,29,16,55,14.60
2009,04,29,16,56,14.60
2009,04,29,16,57,14.60
2009,04,29,16,58,14.70
2009,04,29,16,59,14.70
2009,04,29,17,00,14.70
2009,04,29,17,01,14.60
2009,04,29,17,02,14.50
2009,04,29,17,03,14.50
2009,04,29,17,04,14.40
2009,04,29,17,05,14.40
2009,04,29,17,06,14.30
2009,04,29,17,07,14.30
2009,04,29,17,08,14.30
2009,04,29,17,09,14.30
2009,04,29,17,10,14.30
2009,04,29,17,11,14.30
2009,04,29,17,12,14.30
2009,04,29,17,13,14.40
2009,04,29,17,14,14.40
2009,04,29,17,15,14.40
2009,04,29,17,16,14.40
2009,04,29,17,17,14.40
2009,04,29,17,18,14.40
2009,04,29,17,19,14.40
2009,04,29,17,20,14.40
2009,04,29,17,21,14.40
2009,04,29,17,22,14.40
2009,04,29,17,23,14.40
2009,04,29,17,24,14.40
2009,04,29,17,25,14.30
2009,04,29,17,26,14.30
2009,04,29,17,27,14.30
2009,04,29,17,28,14.30
2009,04,29,17,29,14.40
2009,04,29,17,30,14.40
2009,04,29,17,31,14.40
2009,04,29,17,32,14.40
2009,04,29,17,33,14.30
2009,04,29,17,34,14.30
2009,04,29,17,35,14.30
2009,04,29,17,36,14.40
2009,04,29,17,37,14.40
2009,04,29,17,38,14.40
2009,04,29,17,39,14.40
2009,04,29,17,40,14.40
2009,04,29,17,41,14.40
2009,04,29,17,42,14.40
2009,04,29,17,43,14.40
2009,04,29,17,44,14.40
2009,04,29,17,45,14.40
2009,04,29,17,46,14.50
2009,04,29,17,47,14.50
2009,04,29,17,48,14.50
2009,04,29,17,49,14.60
2009,04,29,17,50,14.60
2009,04,29,17,51,14.60
2009,04,29,17,52,14.60
2009,04,29,17,53,14.50
2009,04,29,17,54,14.50
2009,04,29,17,55,14.50
2009,04,29,17,56,14.50
2009,04,29,17,57,14.40
2009,04,29,17,58,14.40
2009,04,29,17,59,14.40
2009,04,29,18,00,14.40
2009,04,29,18,01,14.40
2009,04,29,18,02,14.40
2009,04,29,18,03,14.30
2009,04,29,18,04,14.30
2009,04,29,18,05,14.30
2009,04,29,18,06,14.30
2009,04,29,18,07,14.30
2009,04,29,18,08,14.20
2009,04,29,18,09,14.20
2009,04,29,18,10,14.20
2009,04,29,18,11,14.10
2009,04,29,18,12,14.00
2009,04,29,18,13,14.00
2009,04,29,18,14,13.90
2009,04,29,18,15,13.90
2009,04,29,18,16,13.90
2009,04,29,18,17,13.90
2009,04,29,18,18,13.90
2009,04,29,18,19,13.90
2009,04,29,18,20,13.90
2009,04,29,18,21,13.90
2009,04,29,18,22,13.90
2009,04,29,18,23,13.90
2009,04,29,18,24,13.90
2009,04,29,18,25,13.90
2009,04,29,18,26,13.90
2009,04,29,18,27,13.90